| time (UTC) | temp C | wind direction | speed KPH | gust KPH | rain 1hr cm | rain 24hr cm | rain mn cm | humidity % | barometer mb |
| 20260503214039 | 18 | 15 | 0.0 | 0.0 | 0.00 | 0.00 | 0.00 | 53 | 1009.7 |
| 20260503213538 | 18 | 15 | 0.0 | 0.0 | 0.00 | 0.00 | 0.00 | 53 | 1009.7 |
| 20260503213038 | 18 | 15 | 0.0 | 0.0 | 0.00 | 0.00 | 0.00 | 52 | 1009.7 |
| 20260503212538 | 18 | 15 | 0.0 | 0.0 | 0.00 | 0.00 | 0.00 | 52 | 1009.7 |
| 20260503212038 | 18 | 15 | 0.0 | 0.0 | 0.00 | 0.00 | 0.00 | 51 | 1009.7 |
| 20260503211537 | 18 | 15 | 0.0 | 1.6 | 0.00 | 0.00 | 0.00 | 51 | 1009.7 |
| 20260503211037 | 18 | 16 | 0.0 | 9.7 | 0.00 | 0.00 | 0.00 | 51 | 1009.7 |
| 20260503210537 | 18 | 22 | 0.0 | 6.4 | 0.00 | 0.00 | 0.00 | 51 | 1009.6 |
| 20260503210036 | 18 | 1 | 0.0 | 6.4 | 0.00 | 0.00 | 0.00 | 51 | 1009.7 |
| 20260503205536 | 19 | 352 | 3.2 | 3.2 | 0.00 | 0.00 | 0.00 | 50 | 1009.7 |
| 20260503205036 | 19 | 352 | 0.0 | 0.0 | 0.00 | 0.00 | 0.00 | 50 | 1009.7 |
| 20260503204536 | 19 | 352 | 0.0 | 0.0 | 0.00 | 0.00 | 0.00 | 50 | 1009.7 |
| 20260503204035 | 19 | 352 | 0.0 | 6.4 | 0.00 | 0.00 | 0.00 | 49 | 1009.7 |
| 20260503203535 | 19 | 2 | 0.0 | 4.8 | 0.00 | 0.00 | 0.00 | 49 | 1009.8 |
| 20260503203035 | 19 | 23 | 0.0 | 6.4 | 0.00 | 0.00 | 0.00 | 48 | 1009.8 |
| 20260503202535 | 19 | 11 | 0.0 | 12.9 | 0.00 | 0.00 | 0.00 | 47 | 1009.9 |
| 20260503202034 | 20 | 67 | 6.4 | 14.5 | 0.00 | 0.00 | 0.00 | 47 | 1010.0 |
| 20260503201534 | 20 | 330 | 0.0 | 6.4 | 0.00 | 0.00 | 0.00 | 47 | 1010.1 |
| 20260503201034 | 20 | 53 | 0.0 | 14.5 | 0.00 | 0.00 | 0.00 | 46 | 1010.2 |
| 20260503200533 | 20 | 139 | 8.0 | 20.9 | 0.00 | 0.00 | 0.00 | 45 | 1010.1 |
| 20260503200033 | 20 | 73 | 1.6 | 11.3 | 0.00 | 0.00 | 0.00 | 45 | 1010.1 |
| 20260503195533 | 20 | 199 | 3.2 | 19.3 | 0.00 | 0.00 | 0.00 | 44 | 1010.0 |
| 20260503195032 | 20 | 151 | 1.6 | 17.7 | 0.00 | 0.00 | 0.00 | 44 | 1009.8 |
| 20260503194532 | 21 | 196 | 6.4 | 11.3 | 0.00 | 0.00 | 0.00 | 42 | 1009.8 |
| 20260503194032 | 21 | 350 | 4.8 | 4.8 | 0.00 | 0.00 | 0.00 | 41 | 1009.7 |
| 20260503193532 | 20 | 18 | 1.6 | 12.9 | 0.00 | 0.00 | 0.00 | 41 | 1009.6 |
| 20260503193031 | 21 | 26 | 0.0 | 11.3 | 0.00 | 0.00 | 0.00 | 41 | 1009.4 |
| 20260503192531 | 21 | 271 | 1.6 | 14.5 | 0.00 | 0.00 | 0.00 | 41 | 1009.4 |
| 20260503192031 | 21 | 150 | 9.7 | 14.5 | 0.00 | 0.00 | 0.00 | 41 | 1009.3 |
| 20260503191531 | 21 | 53 | 1.6 | 11.3 | 0.00 | 0.00 | 0.00 | 42 | 1009.3 |
| 20260503191030 | 21 | 84 | 0.0 | 8.0 | 0.00 | 0.00 | 0.00 | 42 | 1009.2 |
| 20260503190530 | 21 | 137 | 4.8 | 6.4 | 0.00 | 0.00 | 0.00 | 42 | 1009.1 |
| 20260503190030 | 21 | 161 | 3.2 | 8.0 | 0.00 | 0.00 | 0.00 | 41 | 1009.0 |
| 20260503185529 | 21 | 33 | 0.0 | 4.8 | 0.00 | 0.00 | 0.00 | 41 | 1008.9 |
| 20260503185029 | 22 | 16 | 0.0 | 6.4 | 0.00 | 0.00 | 0.00 | 41 | 1008.9 |
| 20260503184529 | 22 | 35 | 0.0 | 3.2 | 0.00 | 0.00 | 0.00 | 40 | 1008.6 |
| 20260503184029 | 22 | 150 | 1.6 | 8.0 | 0.00 | 0.00 | 0.00 | 39 | 1008.4 |
| 20260503183528 | 22 | 78 | 0.0 | 6.4 | 0.00 | 0.00 | 0.00 | 38 | 1008.4 |
| 20260503183028 | 22 | 350 | 0.0 | 3.2 | 0.00 | 0.00 | 0.00 | 38 | 1008.3 |
| 20260503182528 | 23 | 101 | 0.0 | 4.8 | 0.00 | 0.00 | 0.00 | 38 | 1008.3 |
| 20260503182027 | 22 | 7 | 0.0 | 6.4 | 0.00 | 0.00 | 0.00 | 37 | 1008.2 |
| 20260503181527 | 23 | 118 | 0.0 | 11.3 | 0.00 | 0.00 | 0.00 | 37 | 1008.2 |
| 20260503181027 | 22 | 154 | 9.7 | 9.7 | 0.00 | 0.00 | 0.00 | 36 | 1008.1 |
| 20260503180528 | 23 | 122 | 3.2 | 3.2 | 0.00 | 0.00 | 0.00 | 36 | 1008.1 |
| 20260503180026 | 22 | 74 | 0.0 | 6.4 | 0.00 | 0.00 | 0.00 | 35 | 1008.0 |
| 20260503175526 | 23 | 14 | 0.0 | 4.8 | 0.00 | 0.00 | 0.00 | 35 | 1008.1 |
| 20260503175026 | 23 | 111 | 0.0 | 8.0 | 0.00 | 0.00 | 0.00 | 35 | 1008.0 |
| 20260503174525 | 23 | 174 | 0.0 | 1.6 | 0.00 | 0.00 | 0.00 | 34 | 1008.0 |
| 20260503174025 | 23 | 11 | 0.0 | 1.6 | 0.00 | 0.00 | 0.00 | 34 | 1007.9 |
| 20260503173525 | 23 | 161 | 0.0 | 0.0 | 0.00 | 0.00 | 0.00 | 34 | 1007.9 |
| 20260503173025 | 23 | 161 | 0.0 | 3.2 | 0.00 | 0.00 | 0.00 | 34 | 1007.9 |
| 20260503172524 | 23 | 118 | 0.0 | 1.6 | 0.00 | 0.00 | 0.00 | 33 | 1007.9 |
| 20260503172024 | 23 | 81 | 0.0 | 3.2 | 0.00 | 0.00 | 0.00 | 33 | 1007.8 |
| 20260503171524 | 23 | 168 | 0.0 | 6.4 | 0.00 | 0.00 | 0.00 | 33 | 1007.9 |
| 20260503171023 | 23 | 358 | 4.8 | 4.8 | 0.00 | 0.00 | 0.00 | 33 | 1007.9 |
| 20260503170523 | 23 | 149 | 0.0 | 9.7 | 0.00 | 0.00 | 0.00 | 32 | 1007.8 |
| 20260503150516 | 25 | 26 | 3.2 | 16.1 | 0.00 | 0.00 | 0.00 | 31 | 1008.2 |
| 20260503131010 | 23 | 343 | 1.6 | 11.3 | 0.00 | 0.00 | 0.00 | 34 | 1009.1 |
| 20260503130510 | 23 | 70 | 0.0 | 8.0 | 0.00 | 0.00 | 0.00 | 35 | 1009.2 |
| 20260503110503 | 24 | 164 | 9.7 | 24.1 | 0.00 | 0.00 | 0.00 | 29 | 1009.6 |
| 20260503090456 | 20 | 7 | 3.2 | 3.2 | 0.00 | 0.00 | 0.00 | 48 | 1010.8 |
| 20260503081453 | 19 | 47 | 0.0 | 0.0 | 0.00 | 0.00 | 0.00 | 53 | 1011.2 |
| 20260503080953 | 19 | 47 | 0.0 | 3.2 | 0.00 | 0.00 | 0.00 | 54 | 1011.2 |
| 20260503080453 | 19 | 11 | 0.0 | 4.8 | 0.00 | 0.00 | 0.00 | 54 | 1011.2 |
| 20260503072450 | 18 | 160 | 4.8 | 4.8 | 0.00 | 0.00 | 0.00 | 57 | 1011.5 |
| 20260503071950 | 18 | 97 | 0.0 | 6.4 | 0.00 | 0.00 | 0.00 | 57 | 1011.5 |
| 20260503071450 | 18 | 73 | 0.0 | 0.0 | 0.00 | 0.00 | 0.00 | 58 | 1011.6 |
| 20260503070949 | 18 | 73 | 0.0 | 3.2 | 0.00 | 0.00 | 0.00 | 58 | 1011.5 |
| 20260503070449 | 18 | 118 | 0.0 | 1.6 | 0.00 | 0.00 | 0.00 | 58 | 1011.6 |
| 20260503054945 | 17 | 127 | 0.0 | 0.0 | 0.00 | 0.00 | 0.00 | 63 | 1010.7 |
| 20260503054445 | 16 | 127 | 0.0 | 0.0 | 0.00 | 0.00 | 0.00 | 64 | 1010.8 |
| 20260503053944 | 16 | 127 | 0.0 | 0.0 | 0.00 | 0.00 | 0.00 | 64 | 1010.7 |
| 20260503053444 | 16 | 127 | 0.0 | 0.0 | 0.00 | 0.00 | 0.00 | 64 | 1010.6 |
| 20260503052944 | 16 | 127 | 0.0 | 0.0 | 0.00 | 0.00 | 0.00 | 64 | 1010.6 |
| 20260503052443 | 16 | 127 | 0.0 | 0.0 | 0.00 | 0.00 | 0.00 | 64 | 1010.7 |
| 20260503051943 | 16 | 127 | 0.0 | 0.0 | 0.00 | 0.00 | 0.00 | 64 | 1010.6 |
| 20260503051443 | 16 | 127 | 0.0 | 0.0 | 0.00 | 0.00 | 0.00 | 64 | 1010.6 |
| 20260503050943 | 16 | 127 | 0.0 | 0.0 | 0.00 | 0.00 | 0.00 | 64 | 1010.6 |
| 20260503050442 | 16 | 127 | 0.0 | 0.0 | 0.00 | 0.00 | 0.00 | 64 | 1010.6 |
| 20260503045942 | 16 | 127 | 0.0 | 0.0 | 0.00 | 0.00 | 0.00 | 64 | 1010.7 |
| 20260503045442 | 16 | 127 | 0.0 | 0.0 | 0.00 | 0.00 | 0.00 | 64 | 1010.6 |
| 20260503044941 | 16 | 127 | 0.0 | 0.0 | 0.00 | 0.00 | 0.00 | 64 | 1010.7 |
| 20260503044441 | 15 | 127 | 0.0 | 0.0 | 0.00 | 0.00 | 0.00 | 64 | 1010.7 |
| 20260503043941 | 15 | 127 | 0.0 | 0.0 | 0.00 | 0.00 | 0.00 | 64 | 1010.6 |
| 20260503043441 | 16 | 127 | 0.0 | 0.0 | 0.00 | 0.00 | 0.00 | 64 | 1010.6 |
| 20260503042940 | 15 | 127 | 0.0 | 0.0 | 0.00 | 0.00 | 0.00 | 64 | 1010.6 |
| 20260503042440 | 15 | 127 | 0.0 | 0.0 | 0.00 | 0.00 | 0.00 | 64 | 1010.6 |
| 20260503041940 | 15 | 127 | 0.0 | 0.0 | 0.00 | 0.00 | 0.00 | 64 | 1010.5 |
| 20260503041439 | 15 | 127 | 0.0 | 0.0 | 0.00 | 0.00 | 0.00 | 64 | 1010.6 |
| 20260503040939 | 15 | 127 | 0.0 | 0.0 | 0.00 | 0.00 | 0.00 | 64 | 1010.4 |
| 20260503040439 | 15 | 127 | 0.0 | 0.0 | 0.00 | 0.00 | 0.00 | 64 | 1010.4 |
| 20260503035939 | 15 | 127 | 0.0 | 0.0 | 0.00 | 0.00 | 0.00 | 64 | 1010.4 |
| 20260503035438 | 15 | 127 | 0.0 | 0.0 | 0.00 | 0.00 | 0.00 | 64 | 1010.3 |
| 20260503034938 | 15 | 127 | 0.0 | 0.0 | 0.00 | 0.00 | 0.00 | 63 | 1010.5 |
| 20260503034438 | 15 | 127 | 0.0 | 0.0 | 0.00 | 0.00 | 0.00 | 63 | 1010.6 |
| 20260503033937 | 16 | 127 | 0.0 | 0.0 | 0.00 | 0.00 | 0.00 | 63 | 1010.6 |
| 20260503033437 | 16 | 127 | 0.0 | 0.0 | 0.00 | 0.00 | 0.00 | 63 | 1010.6 |
| 20260503032937 | 16 | 127 | 0.0 | 0.0 | 0.00 | 0.00 | 0.00 | 63 | 1010.6 |
| 20260503032437 | 16 | 127 | 0.0 | 0.0 | 0.00 | 0.00 | 0.00 | 63 | 1010.4 |
| 20260503031936 | 16 | 127 | 0.0 | 0.0 | 0.00 | 0.00 | 0.00 | 62 | 1010.5 |
| 20260503031436 | 16 | 127 | 0.0 | 0.0 | 0.00 | 0.00 | 0.00 | 62 | 1010.5 |
| 20260503030936 | 16 | 127 | 0.0 | 0.0 | 0.00 | 0.00 | 0.00 | 62 | 1010.5 |
| 20260503030436 | 16 | 127 | 0.0 | 0.0 | 0.00 | 0.00 | 0.00 | 62 | 1010.5 |
| 20260503025935 | 16 | 127 | 0.0 | 0.0 | 0.00 | 0.00 | 0.00 | 62 | 1010.6 |
| 20260503025435 | 16 | 127 | 0.0 | 0.0 | 0.00 | 0.00 | 0.00 | 61 | 1010.6 |
| 20260503024935 | 16 | 127 | 0.0 | 0.0 | 0.00 | 0.00 | 0.00 | 61 | 1010.5 |
| 20260503024434 | 16 | 127 | 0.0 | 0.0 | 0.00 | 0.00 | 0.00 | 61 | 1010.6 |
| 20260503023934 | 16 | 127 | 0.0 | 0.0 | 0.00 | 0.00 | 0.00 | 61 | 1010.6 |
| 20260503023434 | 16 | 127 | 0.0 | 0.0 | 0.00 | 0.00 | 0.00 | 61 | 1010.7 |
| 20260503022934 | 16 | 127 | 0.0 | 0.0 | 0.00 | 0.00 | 0.00 | 61 | 1010.7 |
| 20260503022433 | 16 | 127 | 0.0 | 0.0 | 0.00 | 0.00 | 0.00 | 61 | 1010.8 |
| 20260503021933 | 16 | 127 | 0.0 | 0.0 | 0.00 | 0.00 | 0.00 | 61 | 1010.8 |
| 20260503021433 | 17 | 127 | 0.0 | 1.6 | 0.00 | 0.00 | 0.00 | 61 | 1010.7 |
| 20260503020932 | 17 | 94 | 0.0 | 0.0 | 0.00 | 0.00 | 0.00 | 60 | 1010.8 |
| 20260503020432 | 17 | 94 | 0.0 | 0.0 | 0.00 | 0.00 | 0.00 | 60 | 1010.9 |
| 20260503015932 | 17 | 94 | 0.0 | 0.0 | 0.00 | 0.00 | 0.00 | 60 | 1010.9 |
| 20260503015432 | 17 | 94 | 0.0 | 0.0 | 0.00 | 0.00 | 0.00 | 60 | 1010.9 |
| 20260503014931 | 17 | 94 | 0.0 | 0.0 | 0.00 | 0.00 | 0.00 | 60 | 1010.9 |
| 20260503014431 | 17 | 94 | 0.0 | 0.0 | 0.00 | 0.00 | 0.00 | 59 | 1010.9 |
| 20260503013931 | 17 | 94 | 0.0 | 0.0 | 0.00 | 0.00 | 0.00 | 59 | 1010.9 |
| 20260503013430 | 17 | 94 | 0.0 | 0.0 | 0.00 | 0.00 | 0.00 | 59 | 1010.9 |
| 20260503012930 | 17 | 94 | 0.0 | 0.0 | 0.00 | 0.00 | 0.00 | 59 | 1010.9 |
| 20260503012430 | 17 | 94 | 0.0 | 0.0 | 0.00 | 0.00 | 0.00 | 59 | 1010.9 |
| 20260503011930 | 17 | 94 | 0.0 | 0.0 | 0.00 | 0.00 | 0.00 | 58 | 1010.9 |
| 20260503011429 | 17 | 94 | 0.0 | 0.0 | 0.00 | 0.00 | 0.00 | 58 | 1010.9 |
| 20260503010929 | 17 | 94 | 0.0 | 0.0 | 0.00 | 0.00 | 0.00 | 58 | 1010.9 |
| 20260503010429 | 18 | 94 | 0.0 | 0.0 | 0.00 | 0.00 | 0.00 | 58 | 1010.9 |
| 20260503005928 | 18 | 94 | 0.0 | 0.0 | 0.00 | 0.00 | 0.00 | 58 | 1010.9 |
| 20260503005428 | 17 | 94 | 0.0 | 0.0 | 0.00 | 0.00 | 0.00 | 58 | 1010.9 |
| 20260503004928 | 18 | 94 | 0.0 | 0.0 | 0.00 | 0.00 | 0.00 | 57 | 1011.0 |
| 20260503004428 | 18 | 94 | 0.0 | 0.0 | 0.00 | 0.00 | 0.00 | 57 | 1011.0 |
| 20260503003927 | 18 | 94 | 0.0 | 0.0 | 0.00 | 0.00 | 0.00 | 57 | 1011.0 |
| 20260503003427 | 18 | 94 | 0.0 | 0.0 | 0.00 | 0.00 | 0.00 | 56 | 1011.0 |
| 20260503002927 | 18 | 94 | 0.0 | 0.0 | 0.00 | 0.00 | 0.00 | 56 | 1011.1 |
| 20260503002426 | 18 | 94 | 0.0 | 0.0 | 0.00 | 0.00 | 0.00 | 56 | 1011.0 |
| 20260503001926 | 18 | 94 | 0.0 | 0.0 | 0.00 | 0.00 | 0.00 | 55 | 1011.1 |
| 20260503001426 | 18 | 94 | 0.0 | 0.0 | 0.00 | 0.00 | 0.00 | 55 | 1011.2 |
| 20260503000926 | 18 | 94 | 0.0 | 0.0 | 0.00 | 0.00 | 0.00 | 55 | 1011.2 |
| 20260503000425 | 18 | 94 | 0.0 | 0.0 | 0.00 | 0.00 | 0.00 | 55 | 1011.2 |
| 20260502235925 | 18 | 94 | 0.0 | 0.0 | 0.00 | 0.00 | 0.00 | 54 | 1011.3 |
| 20260502235425 | 18 | 94 | 0.0 | 0.0 | 0.00 | 0.00 | 0.00 | 54 | 1011.3 |
| 20260502234924 | 18 | 94 | 0.0 | 0.0 | 0.00 | 0.00 | 0.00 | 54 | 1011.3 |
| 20260502234424 | 19 | 94 | 0.0 | 0.0 | 0.00 | 0.00 | 0.00 | 54 | 1011.3 |
| 20260502233924 | 19 | 94 | 0.0 | 0.0 | 0.00 | 0.00 | 0.00 | 53 | 1011.2 |
| 20260502233424 | 19 | 94 | 0.0 | 0.0 | 0.00 | 0.00 | 0.00 | 53 | 1011.3 |
| 20260502232923 | 19 | 94 | 0.0 | 0.0 | 0.00 | 0.00 | 0.00 | 53 | 1011.3 |
| 20260502232423 | 19 | 94 | 0.0 | 0.0 | 0.00 | 0.00 | 0.00 | 53 | 1011.3 |
| 20260502231923 | 19 | 94 | 0.0 | 0.0 | 0.00 | 0.00 | 0.00 | 53 | 1011.3 |
| 20260502231422 | 20 | 94 | 0.0 | 0.0 | 0.00 | 0.00 | 0.00 | 53 | 1011.4 |
| 20260502230922 | 20 | 94 | 0.0 | 0.0 | 0.00 | 0.00 | 0.00 | 52 | 1011.4 |
| 20260502230422 | 20 | 94 | 0.0 | 0.0 | 0.00 | 0.00 | 0.00 | 52 | 1011.4 |
| 20260502225922 | 20 | 94 | 0.0 | 0.0 | 0.00 | 0.00 | 0.00 | 52 | 1011.4 |
| 20260502225421 | 20 | 94 | 0.0 | 0.0 | 0.00 | 0.00 | 0.00 | 52 | 1011.4 |
| 20260502224921 | 20 | 94 | 0.0 | 0.0 | 0.00 | 0.00 | 0.00 | 52 | 1011.5 |
| 20260502224421 | 20 | 94 | 0.0 | 0.0 | 0.00 | 0.00 | 0.00 | 51 | 1011.4 |
| 20260502223920 | 20 | 94 | 0.0 | 0.0 | 0.00 | 0.00 | 0.00 | 51 | 1011.4 |
| 20260502223420 | 20 | 94 | 0.0 | 0.0 | 0.00 | 0.00 | 0.00 | 51 | 1011.5 |
| 20260502222920 | 20 | 94 | 0.0 | 0.0 | 0.00 | 0.00 | 0.00 | 50 | 1011.5 |
| 20260502222420 | 20 | 94 | 0.0 | 0.0 | 0.00 | 0.00 | 0.00 | 50 | 1011.5 |
| 20260502221919 | 20 | 94 | 0.0 | 0.0 | 0.00 | 0.00 | 0.00 | 50 | 1011.4 |
| 20260502221419 | 20 | 94 | 0.0 | 0.0 | 0.00 | 0.00 | 0.00 | 50 | 1011.4 |
| 20260502220919 | 20 | 94 | 0.0 | 0.0 | 0.00 | 0.00 | 0.00 | 49 | 1011.4 |
| 20260502220419 | 20 | 94 | 0.0 | 0.0 | 0.00 | 0.00 | 0.00 | 49 | 1011.4 |
| 20260502215918 | 21 | 94 | 0.0 | 0.0 | 0.00 | 0.00 | 0.00 | 49 | 1011.5 |
| 20260502215418 | 21 | 94 | 0.0 | 0.0 | 0.00 | 0.00 | 0.00 | 49 | 1011.5 |
| 20260502214918 | 21 | 94 | 0.0 | 0.0 | 0.00 | 0.00 | 0.00 | 49 | 1011.5 |
| 20260502214417 | 21 | 94 | 0.0 | 0.0 | 0.00 | 0.00 | 0.00 | 49 | 1011.5 |